Location: Newark
(48.1500°N, 2.9667°W)
Time: 18:20:49
(UTC+00:00)

A-11 Canister half - Pass Details

Date: 20 January 2020
Orbit: 1525 x 1684 km, 47.3° (Epoch: 17 February)

Event Time Altitude Azimuth Distance (km) Brightness Sun altitude
Rises 20:03:02 0° 242° (WSW) 4,688 12.3 -31.4°
Reaches altitude 10° 20:06:03 10° 241° (WSW) 3,720 11.6 -31.9°
Maximum altitude 20:15:23 72° 160° (SSE) 1,649 8.9 -33.5°
Enters shadow 20:15:56 70° 137° (SE) 1,663 8.8 -33.6°
Drops below altitude 10° 20:25:05 10° 78° (ENE) 3,846 - -35.1°
Sets 20:28:15 0° 77° (ENE) 4,855 - -35.6°
